DW0912 Weather Reports


Display with metric or nautical units.
time (UTC)temp
F
wind
direction
speed
MPH
gust
MPH
rain 1hr
in
rain 24hr
in
rain mn
in
humidity
%
barometer
mb
20260505070055 56 0 0.0 0.0 0.00 0.00 0.00 79 1015.5
20260505064554 56 0 0.0 0.0 0.00 0.00 0.00 79 1015.5
20260505063055 56 0 0.0 0.0 0.00 0.00 0.00 79 1015.5
20260505061553 56 0 0.0 0.0 0.00 0.00 0.00 79 1015.4
20260505060059 56 0 0.0 0.0 0.00 0.00 0.00 79 1015.4
20260505054558 56 0 0.0 0.0 0.00 0.00 0.00 79 1015.3
20260505053056 56 0 0.0 0.0 0.00 0.00 0.00 78 1015.4
20260505051555 56 0 0.0 0.0 0.00 0.00 0.00 77 1015.5
20260505041554 56 0 0.0 0.0 0.00 0.00 0.00 76 1015.4
20260505034553 57 0 0.0 0.0 0.00 0.00 0.00 77 1015.3
20260505033057 57 0 0.0 0.0 0.00 0.00 0.00 77 1015.4
20260505031558 57 0 0.0 0.0 0.00 0.00 0.00 78 1015.1
20260505030100 58 0 0.0 0.0 0.00 0.00 0.00 77 1015.0
20260505024556 58 0 0.0 0.0 0.00 0.00 0.00 75 1015.0
20260505023055 58 0 0.0 0.0 0.00 0.00 0.00 74 1014.9
20260505021551 59 0 0.0 0.0 0.00 0.00 0.00 74 1015.0
20260505020052 60 0 0.0 0.0 0.00 0.00 0.00 73 1014.9
20260505014604 61 0 0.0 0.0 0.00 0.00 0.00 73 1015.0
20260505013055 61 0 0.0 0.0 0.00 0.00 0.00 73 1015.1
20260505011555 60 0 0.0 0.0 0.00 0.00 0.00 74 1015.1
20260505010056 60 0 0.0 0.0 0.00 0.00 0.00 74 1015.2
20260505004558 61 0 0.0 0.0 0.00 0.00 0.00 72 1015.2
20260505003054 61 0 0.0 0.0 0.00 0.00 0.00 71 1015.3
20260505001554 62 0 0.0 0.0 0.00 0.00 0.00 68 1015.1
20260505000057 63 0 0.0 0.0 0.00 0.00 0.00 66 1014.9
20260504234553 64 0 0.0 0.0 0.00 0.00 0.00 63 1014.9
20260504233054 65 0 0.0 0.0 0.00 0.00 0.00 63 1014.9
20260504231558 64 0 0.0 0.0 0.00 0.00 0.00 64 1015.0
20260504230057 64 0 0.0 0.0 0.00 0.00 0.00 65 1015.1
20260504224559 64 0 0.0 0.0 0.00 0.00 0.00 63 1015.2
20260504223054 64 0 0.0 0.0 0.00 0.00 0.00 62 1015.3
20260504221557 65 0 0.0 0.0 0.00 0.00 0.00 60 1015.6
20260504220101 65 0 0.0 0.0 0.00 0.00 0.00 62 1015.7
20260504214604 64 0 0.0 0.0 0.00 0.00 0.00 62 1015.8
20260504213057 65 0 0.0 0.0 0.00 0.00 0.00 60 1015.8
20260504211555 66 0 0.0 0.0 0.00 0.00 0.00 57 1015.7
20260504204610 66 0 0.0 0.0 0.00 0.00 0.00 57 1015.6
20260504203122 66 0 0.0 0.0 0.00 0.00 0.00 56 1015.7
20260504201554 66 0 0.0 0.0 0.00 0.00 0.00 55 1015.7
20260504200055 66 0 0.0 0.0 0.00 0.00 0.00 53 1015.6
20260504194553 66 0 0.0 0.0 0.00 0.00 0.00 56 1015.7
20260504193052 66 0 0.0 0.0 0.00 0.00 0.00 55 1015.7
20260504191557 66 0 0.0 0.0 0.00 0.00 0.00 56 1015.7
20260504190055 65 0 0.0 0.0 0.00 0.00 0.00 57 1015.9
20260504184559 64 0 0.0 0.0 0.00 0.00 0.00 57 1015.9
20260504183053 64 0 0.0 0.0 0.00 0.00 0.00 59 1016.0
20260504181554 63 0 0.0 0.0 0.00 0.00 0.00 60 1016.2
20260504180113 63 0 0.0 0.0 0.00 0.00 0.00 61 1016.1
20260504174553 62 0 0.0 0.0 0.00 0.00 0.00 60 1016.1
20260504173106 62 0 0.0 0.0 0.00 0.00 0.00 61 1015.9
20260504171633 62 0 0.0 0.0 0.00 0.00 0.00 63 1016.0
20260504081558 56 0 0.0 0.0 0.00 0.00 0.00 81 1015.8